This demonstration page uses our WeatherBlox Daily Observations layout. Learn more.

Left ArrowRight Arrow

34.74481, -87.66753

Hourly Observations for May 22, 2021

Temp ( °F °C ) Dew Point ( °F °C ) Humidity (%) Winds ( mph kmh ) Pressure ( in mb ) Visibility ( mi km ) Precip ( " mm )
12:53 am 00:53 Clear 66 18.9 58 14.4 75 75 Calm 30.34 1028 10 16 0.00 0.00
1:53 am 01:53 Clear 66 18.9 58 14.4 75 75 ENE 3 6 30.33 1027 10 16 0.00 0.00
2:53 am 02:53 Clear 64 17.8 58 14.4 81 81 Calm 30.33 1027 10 16 0.00 0.00
3:53 am 03:53 Clear 63 17.2 57 13.9 81 81 Calm 30.32 1027 10 16 0.00 0.00
4:53 am 04:53 Hazy 62 16.7 57 13.9 84 84 Calm 30.33 1027 6 10 0.00 0.00
5:53 am 05:53 Hazy 62 16.7 57 13.9 84 84 E 3 6 30.35 1028 4 6 0.00 0.00
6:53 am 06:53 Sunny 67 19.4 61 16.1 81 81 E 3 6 30.37 1028 9 14 0.00 0.00
7:53 am 07:53 Sunny 72 22.2 61 16.1 68 68 ESE 6 9 30.39 1029 10 16 0.00 0.00
8:53 am 08:53 Sunny 77 25 60 15.6 56 56 SE 7 11 30.39 1029 10 16 0.00 0.00
9:53 am 09:53 Sunny 80 26.7 60 15.6 51 51 SE 7 11 30.38 1029 10 16 0.00 0.00
10:53 am 10:53 Sunny 83 28.3 61 16.1 48 48 VRB 5 7 30.37 1029 10 16 0.00 0.00
11:53 am 11:53 Sunny 84 28.9 60 15.6 44 44 Calm 30.36 1028 10 16 0.00 0.00
12:53 pm 12:53 Sunny 85 29.4 58 14.4 40 40 SSE 6 9 30.35 1028 10 16 0.00 0.00
1:53 pm 13:53 Sunny 85 29.4 57 13.9 39 39 ESE 3 6 30.32 1027 10 16 0.00 0.00
2:53 pm 14:53 Partly Cloudy 85 29.4 60 15.6 43 43 ENE 7 11 30.31 1026 10 16 0.00 0.00
3:53 pm 15:53 Sunny 85 29.4 59 15 42 42 ENE 6 9 30.29 1026 10 16 0.00 0.00
4:53 pm 16:53 Sunny 85 29.4 58 14.4 40 40 NE 3 6 30.28 1025 10 16 0.00 0.00
5:53 pm 17:53 Sunny 83 28.3 59 15 44 44 ENE 3 6 30.27 1025 10 16 0.00 0.00
6:53 pm 18:53 Sunny 81 27.2 66 18.9 61 61 Calm 30.25 1024 10 16 0.00 0.00
7:53 pm 19:53 Clear 78 25.6 62 16.7 58 58 Calm 30.26 1025 10 16 0.00 0.00
8:53 pm 20:53 Clear 73 22.8 62 16.7 69 69 Calm 30.27 1025 10 16 0.00 0.00
9:53 pm 21:53 Clear 70 21.1 63 17.2 79 79 Calm 30.28 1026 10 16 0.00 0.00
10:53 pm 22:53 Clear 68 20 61 16.1 78 78 Calm 30.28 1026 10 16 0.00 0.00
11:53 pm 23:53 Clear 66 18.9 61 16.1 84 84 Calm 30.28 1025 8 13 0.00 0.00

Powered by AerisWeather